Notices

Please take our survey and provide feedback: https://eccc.sondage-survey.ca/f/LanguageSelection.aspx?s=442ca660-fcf1-47c0-95a9-59707d6fd709

Please note that the IDF dataset is available through this link: Intensity-Duration-Frequency (IDF) Files .

Hourly Data Report for November 18, 2020

MUSKOKA
ONTARIO
Current Station Operator: NAVCAN

44°58'29.000" N
79°18'12.000" W
281.90 m
6115529
71532
YQA

Download Data

Hourly Data (November 2020)
Hourly Data Report for November 18, 2020
TIME
LST
Temp Definition
°C
Dew Point Definition
°C
Rel Hum Definition
%
Precip. Amount Definition
mm

Wind Dir Definition
10's deg

Wind Spd Definition
km/h
Visibility Definition
km
Stn Press Definition
kPa
Hmdx Definition


Wind Chill Definition


Weather Definition


00:00 -8.2 -12.2 73 LegendMM 32 21 16.1 99.32   -16 Snow
01:00 -8.3 -12.3 73 LegendMM 33 17 16.1 99.37   -15 LegendNANA
02:00 -8.5 -12.6 72 LegendMM 33 17 16.1 99.47   -15 LegendNANA
03:00 -8.2 -12.4 72 LegendMM 36 9 16.1 99.50   -13 LegendNANA
04:00 -8.4 -12.6 72 LegendMM 35 11 16.1 99.58   -14 LegendNANA
05:00 -9.1 -13.3 72 LegendMM 35 5 16.1 99.67   -12 LegendNANA
06:00 -9.2 -13.9 69 LegendMM 34 8 16.1 99.73   -14 LegendNANA
07:00 -9.0 -13.9 68 LegendMM 35 5 16.1 99.79   -12 LegendNANA
08:00 -8.5 -13.8 66 LegendMM 36 5 16.1 99.82   -11 LegendNANA
09:00 -7.9 -14.0 62 LegendMM 4 8 16.1 99.86   -12 LegendNANA
10:00 -7.2 -13.5 61 LegendMM 36 5 16.1 99.88   -10 LegendNANA
11:00 -6.6 -13.2 60 244.8   0 16.1 99.91     Snow
12:00 -5.7 -11.5 64 0.0 19 5 16.1 99.83   -8 Snow
13:00 -5.0 -10.2 67 0.0 25 8 16.1 99.80   -9 Snow
14:00 -4.9 -9.8 69 0.0 19 8 16.1 99.76   -8 Snow
15:00 -4.6 -9.5 69 0.0 17 8 16.1 99.73   -8 LegendNANA
16:00 -4.5 -8.8 72 0.0 18 9 16.1 99.70   -8 LegendNANA
17:00 -4.3 -8.0 76 0.0 14 11 16.1 99.68   -9 LegendNANA
18:00 -4.2 -7.3 79 0.0 14 8 16.1 99.61   -8 LegendNANA
19:00 -4.0 -6.6 82 0.0 14 11 16.1 99.61   -8 LegendNANA
20:00 -3.8 -6.6 81 0.0 15 13 16.1 99.54   -9 LegendNANA
21:00 -3.4 -6.2 81 0.0 15 13 16.1 99.47   -8 LegendNANA
22:00 -3.1 -5.6 83 0.0 14 17 16.1 99.35   -9 LegendNANA
23:00 -3.0 -5.2 85 0.0 14 15 16.1 99.29   -8 LegendNANA

Notes on Data Quality.

Legend

  • E = Estimated
  • M = Missing
  • NA = Not Available*
  • [empty] = Indicates an unobserved value
Date modified: